User: anonymous   Login
Location: Borgo
(42.3939°N, 9.2791°E)
Time: 08:49:03
(UTC+00:00)
Language:

NOSS 2-1 (E) - Orbit

View from above orbital plane
View from above orbital plane
View from above satellite
View from above satellite

Ground track
Ground track

The orbit data is extracted from the following two-line orbital elements,

1 20642U 90050E   21090.14647381 0.00000000  00000-0  00000-0 0    07
2 20642  63.3148 204.1487 0892433  48.5662 311.4337 13.42229244    02
Epoch (UTC): 31 March 2021 03:30:55
Eccentricity: 0.0892433
inclination: 63.3148°
perigee height: 433 km
apogee height: 1768 km
right ascension of ascending node: 204.1487°
argument of perigee: 48.5662°
revolutions per day: 13.42229244
mean anomaly at epoch: 311.4337°
orbit number at epoch: 0

The dashed part of the orbit path shows where the satellite is in the earth's shadow,  

DLR